User: anonymous   Login
Location: Newark
(33.4453°N, 112.0669°W)
Time: 21:39:19
(UTC+00:00)
Language:

Courier 1B Rocket - Orbit

View from above orbital plane
View from above orbital plane
View from above satellite
View from above satellite

Ground track
Ground track

The orbit data is extracted from the following two-line orbital elements,

1    59U 60013B   20058.20393135 +.00000103 +00000-0 +23407-4 0  9999
2    59 028.2487 069.6657 0189316 072.4509 289.6626 13.52974892931520
Epoch (UTC): 27 February 2020 04:53:39
Eccentricity: 0.0189316
inclination: 28.2487°
perigee height: 920 km
apogee height: 1202 km
right ascension of ascending node: 69.6657°
argument of perigee: 72.4509°
revolutions per day: 13.52974892
mean anomaly at epoch: 289.6626°
orbit number at epoch: 93152

The dashed part of the orbit path shows where the satellite is in the earth's shadow,  

DLR